{"data":{"norad_id":56539,"intl_designator":"2023-065AN","name":"STARLINK-6135","alt_names":[],"object_type":"PAYLOAD","status":"ACTIVE","operator":null,"country":"US","launch_date":"2023-05-14","launch_site_code":"AFETR","launch_vehicle":null,"mission":null,"orbit_class":"UNKNOWN","rcs_meters":null,"size_class":null,"mass_kg":null,"dimensions":null,"purposes":["comms"],"wikipedia_slug":null,"has_3d_model":false,"image_url":null,"decayed_at":null,"tle_current":{"epoch":"2026-09-20T13:05:48.546528Z","epoch_age_seconds":110920,"freshness":"FRESH","line1":"1 56539U 23065AN  26263.54570077  .00001029  00000+0  46901-4 0  9993","line2":"2 56539  43.0006 206.4846 0000411 245.1954 114.8855 15.27573667186230","mean_motion":15.27573667,"eccentricity":4.11e-5,"inclination_deg":43.0006,"raan_deg":206.4846,"arg_perigee_deg":245.1954,"mean_anomaly_deg":114.8855,"bstar":4.6901e-5,"rev_number":18623,"period_min":94.267139523818,"perigee_km":482.78606385751,"apogee_km":483.35005491339,"semimajor_km":6861.2050593855,"source":"CELESTRAK","updated_at":"2026-09-21T09:00:33.476502Z"}}}